Погода в Иноковке 1-ой

Россия / Тамбовская область     52°32′36″N   42°32′52″E
темп.,
°C
ветер,
м/с
пор.,
м/с
влажн.,
%
обл.,
%
осадки,
мм/ч
давл.,
гПа
погр.,
м
27 сентября, пн
пн2700:00+9ссз4893100 2.0 1006440
03:00+9с51193100 2.4 1008534
06:00+9с71292100 0.6 1009648
09:00+9с71290100 1.2 1011688
12:00+9с61085100 0.1 1014543
15:00+12с796886 0.1 1014988
18:00+10с597895 0.1 1015483
21:00+9с488796 0.3 1016587
28 сентября, вт
вт2800:00+8ссв4787100 0.2 1018585
03:00+7ссв5786100 0.2 1019720
06:00+6ссв5791100 0.1 1021932
09:00+6св6986100 0.6 1023864
12:00+6св7871100 0.0 10251143
15:00+7св5866100 0.0 10261323
18:00+6св6962100 0.0 1028871
21:00+4св337611 0.0 102937
29 сентября, ср
ср2900:00+3с34815 0.0 103066
03:00+2ссв368342 0.0 1031121
06:00+1ссв38855 0.0 1031162
09:00+6св58658 0.0 1032542
12:00+9св56495 0.0 10321277
15:00+10св56455 0.0 10311461
18:00+7ссв34595 0.0 103255
21:00+5св3368100 0.0 103347
30 сентября, чт
чт3000:00+4св22715 0.0 103419
03:00+3ссв227347 0.0 103413
06:00+3с22778 0.0 103512
09:00+7ссв226021 0.0 1035319
12:00+10св334923 0.0 10351254
15:00+11с334787 0.0 10341657
18:00+9св235699 0.0 103592
21:00+7с11645 0.0 103510
1 октября, пт
пт100:00+7з1162100 0.0 103618
03:00+7зсз2464100 0.0 103698
06:00+7сз2468100 0.0 1036136
09:00+10ссз346677 0.0 1036402
12:00+12с335875 0.0 1036914
15:00+14с335112 0.0 10351233
18:00+10с22655 0.0 103510
21:00+8в01635 0.0 103710